Flag for U.S.A. Weather past 2 weeks in Memphis, Tennessee, U.S.A.

Now
79 °F

Scattered clouds.


Feels Like: 80 °F
Forecast: 54 / 76 °F
Wind: 6 mph from Southwest

Location: Memphis International Airport

Current Time: Mar 31, 2015 at 4:51:42 PM

Latest Report: Mar 31, 2015 at 3:54 PM


Visibility: 10 mi

Pressure: 29.90 "Hg

Humidity: 50%

Dew point: 59 °F

Location of MemphisLocation

Historic Weather in Memphis — Graph

°F

Memphis temperature yesterday

Maximum temperature yesterday: 73 °F (at 4:54 PM)
Minimum temperature yesterday: 52 °F (at 6:54 AM)
Average temperature yesterday: 62 °F

Past Weeks' High & Low Weather Summary

 TemperatureHumidityPressure
High79 °F (Mar 31, 3:54 PM)97% (Mar 23, 7:54 AM)30.33 "Hg (Mar 23, 7:54 AM)
Low36 °F (Mar 27, 4:54 AM)26% (Mar 30, 2:54 PM)29.85 "Hg (Mar 26, 3:54 AM)
Average56 °F66%30.08 "Hg
* Reported Mar 16 3:54 PM — Mar 31 3:54 PM, Memphis, Weather by CustomWeather, © 2015

Note: Actual official high and low records may vary slightly from our data, if they occured in-between our weather recording intervals... More about our weather records

Advertising

Memphis weather history for previous 24 hours

 ConditionsComfort  
Time TempWeatherWind HumidityBarometerVisibility
3:54 PM
Tue, Mar 31
79 °FScattered clouds.6 mph50%29.90 "Hg10 mi
2:54 PM77 °FMostly cloudy.No wind56%29.91 "Hg10 mi
1:54 PM78 °FScattered clouds.7 mph52%29.94 "Hg10 mi
12:54 PM77 °FScattered clouds.9 mph58%29.97 "Hg10 mi
11:54 AM75 °FBroken clouds.6 mph60%30.00 "Hg10 mi
11:01 AM72 °FPartly sunny.5 mph65%30.02 "Hg10 mi
9:54 AM70 °FPartly sunny.6 mph68%30.02 "Hg10 mi
8:54 AM65 °FPartly sunny.9 mph70%30.01 "Hg10 mi
7:54 AM61 °FBroken clouds.5 mph67%30.01 "Hg10 mi
6:54 AM59 °FBroken clouds.7 mph67%30.00 "Hg10 mi
5:54 AM59 °FPartly cloudy.10 mph64%29.99 "Hg10 mi
4:54 AM58 °FPassing clouds.5 mph67%30.00 "Hg10 mi
3:54 AM55 °FPassing clouds.No wind72%29.99 "Hg10 mi
2:54 AM56 °FClear.7 mph67%30.00 "Hg10 mi
1:54 AM53 °FClear.No wind72%30.03 "Hg10 mi
12:54 AM54 °FClear.No wind72%30.05 "Hg10 mi
11:54 PM
Mon, Mar 30
58 °FClear.No wind62%30.06 "Hg10 mi
10:54 PM58 °FClear.No wind60%30.08 "Hg10 mi
9:54 PM58 °FClear.No wind54%30.10 "Hg10 mi
8:54 PM60 °FClear.5 mph47%30.11 "Hg10 mi
7:54 PM66 °FClear.No wind34%30.09 "Hg10 mi
6:54 PM68 °FSunny.7 mph31%30.09 "Hg10 mi
5:54 PM73 °FSunny.5 mph28%30.10 "Hg10 mi
4:54 PM73 °FSunny.6 mph29%30.11 "Hg10 mi
Weather by CustomWeather, © 2015

See weather overviewHow to use our weather pages